Change the Weather History Date:

Thursday, March 31, 2011

  Actual Average Record
Temperature  
Mean Temperature 37 °F 44 °F  
Max Temperature 39 °F 54 °F 87 °F (1998)
Min Temperature 34 °F 34 °F 15 °F (1923)
Degree Days  
Heating Degree Days 28 21  
Month to date heating degree days 839 829  
Since 1 July heating degree days 5393 5296  
Cooling Degree Days 0 0  
Month to date cooling degree days 0 0  
Year to date cooling degree days 0 0  
Moisture  
Dew Point 36 °F    
Average Humidity 93    
Maximum Humidity 100    
Minimum Humidity 85    
Precipitation  
Precipitation 0.11 in 0.11 in 1.86 in (1940)
Month to date precipitation 7.27 2.97  
Year to date precipitation 12.72 8.01  
Snow  
Snow 0.00 in - - ()
Month to date snowfall 13.0  
Since 1 July snowfall 45.6  
Snow Depth 0.00 in    
Sea Level Pressure  
Sea Level Pressure 29.78 in    
Wind  
Wind Speed 3 mph (ENE)    
Max Wind Speed 12 mph    
Max Gust Speed 15 mph    
Visibility 4 miles    
Events Rain    
T = Trace of Precipitation, MM = Missing Value Source: NWS Daily Summary

Daily Weather History Graph

Daily Weather History Graph

Search for Another Location

Airport or City:

Trip Planner

Search our weather history database for the weather conditions in past years. The results will help you decide how hot, cold, wet, or windy it might be!

Date:

Astronomy

Mar. 31, 2011 Rise Set
Actual Time 6:53 AM EDT 7:31 PM EDT
Civil Twilight 6:25 AM EDT 7:59 PM EDT
Nautical Twilight 5:52 AM EDT 8:32 PM EDT
Astronomical Twilight 5:18 AM EDT 9:06 PM EDT
Moon 5:13 AM EDT (3/31) 5:03 PM EDT (3/31)
Length of Visible Light 13h 33m
Length of Day
12h 38m
Waning Crescent, 8% of the Moon is Illuminated
Mar 31
Waning Crescent
Apr 3
New
Apr 11
First Quarter
Apr 17
Full
Apr 24
Last Quarter

Hourly Weather History & Observations

Time (EDT) Temp. Windchill Dew Point Humidity Pressure Visibility Wind Dir Wind Speed Gust Speed Precip Events Conditions
12:54 AM 35.1 °F 28.6 °F 33.1 °F 92% 29.91 in 4.0 mi ENE 8.1 mph - 0.00 in Rain Light Rain
1:42 AM 33.8 °F 27.7 °F 33.8 °F 100% 29.89 in 4.0 mi East 6.9 mph - 0.01 in Rain Light Rain
1:54 AM 35.1 °F 29.3 °F 33.1 °F 92% 29.89 in 4.0 mi ENE 6.9 mph - 0.01 in Rain Light Rain
2:54 AM 34.0 °F 27.2 °F 33.1 °F 96% 29.88 in 3.0 mi NE 8.1 mph - 0.00 in Rain Light Rain
3:54 AM 35.1 °F 28.6 °F 33.1 °F 92% 29.85 in 4.0 mi ENE 8.1 mph - 0.01 in Rain Light Rain
4:04 AM 35.6 °F 28.6 °F 33.8 °F 93% 29.84 in 4.0 mi ENE 9.2 mph - 0.00 in Rain Light Rain
4:20 AM 35.6 °F 28.6 °F 33.8 °F 93% 29.84 in 4.0 mi ENE 9.2 mph - 0.00 in Rain Light Rain
4:54 AM 35.1 °F 30.1 °F 34.0 °F 96% 29.85 in 3.0 mi ENE 5.8 mph - 0.00 in Rain Light Rain
5:54 AM 34.0 °F 27.2 °F 33.1 °F 96% 29.84 in 3.0 mi ENE 8.1 mph - 0.01 in Rain Rain
6:54 AM 35.1 °F 27.9 °F 33.1 °F 92% 29.83 in 5.0 mi ENE 9.2 mph - 0.02 in Rain Light Rain
7:52 AM 35.6 °F 28.0 °F 33.8 °F 93% 29.82 in 3.0 mi ENE 10.4 mph - 0.00 in Rain Light Rain
7:54 AM 35.1 °F 28.6 °F 33.1 °F 92% 29.84 in 3.0 mi ENE 8.1 mph - 0.00 in Rain Light Rain
8:54 AM 35.1 °F 30.1 °F 34.0 °F 96% 29.84 in 6.0 mi East 5.8 mph - 0.01 in Rain Light Rain
9:46 AM 35.6 °F 30.7 °F 33.8 °F 93% 29.84 in 2.5 mi ENE 5.8 mph - 0.00 in   Overcast
9:54 AM 36.0 °F 33.3 °F 35.1 °F 97% 29.85 in 2.5 mi ENE 3.5 mph - 0.00 in   Overcast
10:16 AM 35.6 °F 31.7 °F 35.6 °F 100% 29.84 in 3.0 mi East 4.6 mph - 0.00 in Rain Light Rain
10:41 AM 35.6 °F - 35.6 °F 100% 29.84 in 4.0 mi Calm Calm - 0.00 in Rain Light Rain
10:50 AM 35.6 °F - 35.6 °F 100% 29.83 in 5.0 mi Calm Calm - 0.01 in Rain Light Rain
10:54 AM 36.0 °F 33.3 °F 35.1 °F 97% 29.85 in 5.0 mi East 3.5 mph - 0.01 in Rain Light Rain
11:29 AM 37.4 °F 33.8 °F 35.6 °F 93% 29.82 in 7.0 mi East 4.6 mph - 0.00 in   Overcast
11:36 AM 37.4 °F 33.8 °F 35.6 °F 93% 29.82 in 7.0 mi East 4.6 mph - 0.00 in   Overcast
11:54 AM 37.0 °F 33.3 °F 35.1 °F 93% 29.84 in 7.0 mi East 4.6 mph - 0.00 in   Overcast
12:54 PM 37.9 °F 33.5 °F 35.1 °F 89% 29.81 in 10.0 mi Variable 5.8 mph - N/A   Overcast
1:54 PM 39.0 °F 36.8 °F 35.1 °F 86% 29.79 in 10.0 mi South 3.5 mph - N/A   Overcast
2:54 PM 37.9 °F 35.5 °F 36.0 °F 93% 29.77 in 3.0 mi NNE 3.5 mph - N/A   Overcast
3:00 PM 39.2 °F - 35.6 °F 87% 29.76 in 2.0 mi Calm Calm - N/A   Overcast
3:40 PM 37.4 °F - 37.4 °F 100% 29.76 in 1.8 mi Calm Calm - N/A   Overcast
3:50 PM 37.4 °F - 37.4 °F 100% 29.76 in 1.8 mi Calm Calm - N/A   Overcast
3:54 PM 37.9 °F - 37.0 °F 97% 29.77 in 1.8 mi Calm Calm - N/A   Overcast
4:15 PM 37.4 °F - 37.4 °F 100% 29.75 in 2.5 mi Calm Calm - N/A   Overcast
4:29 PM 37.4 °F - 37.4 °F 100% 29.75 in 3.0 mi Calm Calm - N/A   Overcast
4:37 PM 37.4 °F - 37.4 °F 100% 29.74 in 2.5 mi Calm Calm - N/A   Overcast
4:51 PM 37.4 °F - 37.4 °F 100% 29.73 in 2.5 mi Calm Calm - N/A   Overcast
4:54 PM 37.9 °F - 37.0 °F 97% 29.75 in 2.5 mi Calm Calm - N/A   Overcast
5:08 PM 37.4 °F - 35.6 °F 93% 29.72 in 4.0 mi Calm Calm - N/A   Overcast
5:37 PM 37.4 °F - 37.4 °F 100% 29.71 in 3.0 mi Calm Calm - N/A   Overcast
5:54 PM 37.4 °F - 37.4 °F 100% 29.71 in 3.0 mi Calm Calm - N/A   Overcast
6:21 PM 37.4 °F - 37.4 °F 100% 29.70 in 5.0 mi Calm Calm - N/A   Overcast
6:30 PM 37.4 °F - 37.4 °F 100% 29.70 in 4.0 mi Calm Calm - 0.00 in Rain Light Rain
6:54 PM 37.9 °F - 37.0 °F 97% 29.72 in 4.0 mi Calm Calm - 0.01 in Rain Light Rain
7:06 PM 37.4 °F - 37.4 °F 100% 29.71 in 5.0 mi Calm Calm - 0.00 in Rain Light Rain
7:54 PM 37.9 °F - 37.0 °F 97% 29.71 in 6.0 mi Calm Calm - 0.00 in Rain Light Rain
8:45 PM 37.4 °F - 37.4 °F 100% 29.70 in 5.0 mi Calm Calm - 0.00 in   Overcast
8:54 PM 37.9 °F - 37.0 °F 97% 29.72 in 5.0 mi Calm Calm - 0.00 in   Overcast
9:13 PM 37.4 °F - 37.4 °F 100% 29.71 in 6.0 mi Calm Calm - N/A   Overcast
9:46 PM 37.4 °F - 37.4 °F 100% 29.71 in 4.0 mi Calm Calm - 0.00 in Rain Light Rain
9:54 PM 37.9 °F - 37.0 °F 97% 29.72 in 3.0 mi Calm Calm - 0.00 in Rain Light Rain
10:54 PM 37.4 °F - 37.4 °F 100% 29.67 in 4.0 mi Calm Calm - N/A Rain Light Rain
11:03 PM 37.4 °F - 37.4 °F 100% 29.67 in 5.0 mi Calm Calm - 0.00 in Rain Light Rain
11:54 PM 37.9 °F - 37.0 °F 97% 29.66 in 6.0 mi Calm Calm - 0.01 in Rain Light Rain